Regional Weather Roundup
Issued by NWS Newport/Morehead, NC

Current Version | Previous Version | Graphics & Text | Print | Product List | Glossary Off
Versions: 1 2 3 4 5 6 7 8 9 10 11 12 13 14 15 16 17 18 19 20 21 22 23 24 25 26 27 28 29 30 31 32 33 34 35 36 37 38 39 40 41 42 43 44 45 46 47 48 49 50

000
ASUS42 KMHX 181910
RWRMHX
WEATHER ROUNDUP FOR EASTERN NORTH CAROLINA
NATIONAL WEATHER SERVICE NEWPORT/MOREHEAD CITY NC
300 PM EDT FRI APR 18 2014

NOTE: "FAIR" INDICATES FEW OR NO CLOUDS BELOW 12,000 FEET
WITH NO SIGNIFICANT WEATHER AND/OR OBSTRUCTIONS TO VISIBILITY

NCZ015>017-031-032-045>047-102-103-182000-
NORTH COAST

CITY           SKY/WX    TMP DP  RH WIND       PRES   REMARKS
EDENTON        PTSUNNY   60  44  55 NE12      30.35F
ELIZABETH CITY CLOUDY    53  41  63 NE13      30.38F
KITTY HAWK     CLOUDY    49  43  78 N9G20     30.36F
MANTEO         CLOUDY    51  43  76 NE15G24   30.37F

$$

NCZ045>047-081-094-103-104-182000-
CENTRAL COAST

CITY           SKY/WX    TMP DP  RH WIND       PRES   REMARKS
FRISCO         CLOUDY    53  48  83 N12G26    30.33F
SWANQUARTER      N/A     57 N/A N/A NE15G22   30.30F

$$

NCZ095-097-098-100-101-182000-
SOUTHERN COAST

CITY           SKY/WX    TMP DP  RH WIND       PRES   REMARKS
BEAUFORT       CLOUDY    64  48  56 N15G23    30.29F
CEDAR ISLAND     N/A     57 N/A N/A N9G22     30.36F
JACKSONVILLE   CLOUDY    65  47  52 N12       30.29F
NEWPORT          N/A     63  50  63 NE9G15      N/A
PINEY ISLAND   CLOUDY    59  48  67 NE17      30.32F
WILMINGTON     CLOUDY    66  49  54 N15       30.27F


$$

NCZ011>013-027>030-043-044-078>080-089-090>093-098-182000-
COASTAL PLAIN

CITY           SKY/WX    TMP DP  RH WIND       PRES   REMARKS
AHOSKIE        CLOUDY    57  41  53 NE6       30.36F
CLINTON        CLOUDY    64  47  53 N9        30.30F
ELIZABETHTOWN  CLOUDY    64  46  51 NE3       30.28F
GOLDSBORO      PTSUNNY   63  45  50 E14       30.29F
GREENVILLE     PTSUNNY   63  45  51 N10       30.33F
HAVELOCK       PTSUNNY   61  49  64 E12       30.31F
KENANSVILLE    CLOUDY    62  44  51 N8        30.31F
KINSTON        PTSUNNY   63  45  51 NE10      30.33F
NEW BERN       CLOUDY    65  48  54 NE10      30.32F
RICHLANDS      CLOUDY    63  45  51 N13       30.31F
ROANOKE RAPIDS NOT AVBL
ROCKY MOUNT    PTSUNNY   62  39  42 N12       30.33F
WASHINGTON     MOSUNNY   63  45  51 NE9G17    30.33F
WHITEVILLE     CLOUDY    62  50  63 NE6       30.27F

$$

AMZ130-135-150-152-154-156-158-170-250-252-270-ANZ085-086-088-633-658-670-182000-
MARINE OBSERVATIONS

STATION/POSITION TIME  TEMP    WIND        PRES    WAVE   SWELL
                       AIR SEA DIR/SP/G            HT/PER HT/PER
                 (UTC) (F)     (DEG/KT/KT) (MB)    (FT/S) (FT/S)
CHESAPEAKE LIGHT 1800   44      20/ 17/ 18 1030.2
BUOY 44014       1900   48 50   10/ 16/ 19 1027.8    8/11   7/11
DUCK             1900   46 51   10/ 17/ 20 1027.7
2E DUCK          1900      49                N/A     6/ 9   3/12
OREGON INLET     1900   49 51  360/ 16/ 22 1027.9
BUOY 44095       1900      48                N/A     8/11   3/11
HATTERAS CG      1900   51 55   10/ 22/ 25 1027.2
DIAMOND BUOY     NOT AVBL
CAPE LOOKOUT     1800   56      30/ 18/ 20 1026.4
BEAUFORT LAB     1900   60 58   20/ 12/ 20 1025.4
30 SE NEW RIVER  1800   58 62   40/ 19/ 21 1025.8
5 SE WRIGHTSVILL 1800   57 59   50/ 12/ 14 1025.7
FRYING PAN BUOY  1900   60 64   60/ 25/ 29 1022.9    8/ 5   3/11
BUOY 41001       NOT AVBL
BUOY 41002       NOT AVBL
BUOY 41004       NOT AVBL

$$



USA.gov is the U.S. government's official web portal to all federal, state and local government web resources and services.